EST,Max TemperatureF,Mean TemperatureF,Min TemperatureF,Max Dew PointF,MeanDew PointF,Min DewpointF,Max Humidity, Mean Humidity, Min Humidity, Max Sea Level PressureIn, Mean Sea Level PressureIn, Min Sea Level PressureIn, Max VisibilityMiles, Mean VisibilityMiles, Min VisibilityMiles, Max Wind SpeedMPH, Mean Wind SpeedMPH, Max Gust SpeedMPH,PrecipitationIn, CloudCover, Events, WindDirDegrees
2012-12-1,60,46,31,41,36,29,96,71,46,30.43,30.39,30.35,10,7,4,7,2,9,0.00,2,,357
2012-12-2,66,50,34,50,42,32,96,76,56,30.40,30.31,30.22,10,8,2,17,7,23,T,5,Rain,190
2012-12-3,72,61,50,53,51,48,96,73,49,30.28,30.24,30.21,10,10,7,9,3,10,0.00,5,,169
2012-12-4,75,62,48,53,50,46,100,71,41,30.29,30.21,30.12,10,8,2,23,7,28,0.00,5,,195
2012-12-5,62,52,42,53,44,29,86,64,42,30.28,30.16,30.07,10,10,10,20,6,71,0.02,4,Rain,326
2012-12-6,48,40,31,31,27,23,82,64,45,30.40,30.33,30.28,10,10,10,16,5,23,0.00,4,,45
2012-12-7,54,45,35,48,41,32,93,81,68,30.26,30.13,30.00,10,8,2,7,2,9,0.13,8,Rain,202
2012-12-8,64,57,49,53,50,48,100,84,67,30.04,29.97,29.94,10,5,0,12,5,21,0.00,7,Fog,218
2012-12-9,55,50,44,52,49,43,100,93,86,30.15,30.08,30.00,8,2,0,7,2,9,0.07,6,Fog-Rain,57
2012-12-10,72,62,51,64,58,51,100,81,61,29.98,29.79,29.66,10,5,0,21,10,28,T,8,Fog,190
2012-12-11,65,55,44,57,40,30,84,67,50,30.24,29.96,29.68,10,10,10,18,10,25,0.00,8,,18
2012-12-12,47,44,40,31,28,27,60,53,45,30.41,30.35,30.23,10,10,10,16,9,22,0.00,8,,26
2012-12-13,52,42,32,32,29,26,78,61,44,30.43,30.39,30.37,10,10,10,15,7,22,0.00,3,,15
2012-12-14,55,41,26,34,27,23,92,62,32,30.38,30.32,30.23,10,10,7,9,1,12,0.00,1,,217
2012-12-15,54,43,31,38,31,27,92,65,38,30.32,30.24,30.13,10,10,7,10,2,13,0.00,6,,143
2012-12-16,55,50,45,54,47,39,100,88,76,30.12,29.99,29.84,10,6,2,12,4,16,0.25,8,Rain,180
2012-12-17,60,56,51,56,54,52,100,89,78,29.86,29.76,29.59,10,6,1,18,6,23,0.01,8,Rain,193
2012-12-18,64,55,45,56,43,30,100,68,35,29.86,29.68,29.59,10,10,9,21,11,26,0.00,4,,260
2012-12-19,62,50,37,36,33,30,76,56,35,30.19,29.99,29.86,10,10,10,15,7,20,0.00,2,,272
2012-12-20,61,47,33,57,40,31,93,73,52,30.22,29.95,29.43,10,9,2,29,9,36,0.40,6,Rain,132
2012-12-21,62,49,36,59,34,20,97,69,40,29.68,29.48,29.34,10,9,2,29,18,40,0.32,7,Rain,247
2012-12-22,50,40,30,22,19,17,63,46,29,30.08,29.89,29.69,10,10,10,29,11,38,0.00,2,,274
2012-12-23,54,39,23,25,21,18,81,54,26,30.12,30.04,29.97,10,10,10,15,5,18,0.00,5,,213
2012-12-24,45,38,31,41,34,22,92,66,40,30.10,29.99,29.90,10,10,7,13,3,17,0.13,8,Rain,187
2012-12-25,51,46,41,43,39,35,96,79,61,30.23,30.10,29.91,10,8,1,15,4,18,0.00,7,,20
2012-12-26,48,43,37,46,38,34,100,87,73,30.21,29.79,29.44,10,5,1,20,11,26,1.32,8,Rain,36
2012-12-27,50,43,35,37,30,23,92,67,42,30.07,29.79,29.50,10,10,10,23,12,30,T,3,Rain,283
2012-12-28,45,37,29,31,26,23,85,67,49,30.18,30.11,30.05,10,10,10,10,3,13,0.00,7,,230
2012-12-29,46,41,35,39,35,25,100,79,57,30.03,29.77,29.59,10,8,1,16,6,30,0.18,6,Rain,298
2012-12-30,47,37,27,25,20,15,75,53,31,30.38,30.18,29.88,10,10,10,24,9,30,0.00,2,,300
2012-12-31,47,35,22,26,22,19,92,63,34,30.36,30.24,30.06,10,10,10,15,6,20,0.00,6,,214